Wind_Speed
12 9 9 12 14 16 15 16 17 14 12 10 5 4 7 7 5 5 5 3 2 1 1 3 6 8 11 13 15 17 19 22
10 9 9 10 12 14 15 15 14 13 11 11 10 11 10 8 7 6 4 3 3 3 3 6 8 10 13 15 18 19 21 20
10 11 12 12 13 14 16 13 14 12 12 13 12 11 9 9 7 5 3 3 3 4 6 9 10 14 16 17 17 18 17 17
11 13 13 12 13 13 14 14 14 13 12 10 9 9 8 8 5 3 2 4 5 7 9 11 14 15 17 17 15 14 18 16
12 15 16 15 15 15 15 17 14 11 10 10 8 4 6 5 3 3 3 5 7 10 12 13 15 17 17 16 15 12 15 15
15 16 18 18 17 17 16 14 12 11 9 8 6 6 5 4 2 3 5 7 10 12 15 16 16 18 17 15 14 14 13 17
17 20 21 19 17 16 16 15 14 12 12 11 11 8 5 3 3 5 7 10 11 12 14 16 17 17 16 15 13 12 15 17
17 17 19 19 18 17 16 15 15 14 13 12 11 9 7 5 6 6 9 10 11 13 15 16 18 17 16 14 10 15 18 15
17 18 18 18 18 18 16 16 15 14 13 12 10 7 4 2 2 6 7 10 11 14 15 17 17 15 14 10 14 17 14 14
17 18 18 18 18 18 18 17 15 14 13 9 7 7 5 1 2 5 7 9 12 14 15 16 16 14 16 15 17 18 17 14
15 17 17 18 19 19 18 17 16 13 9 9 10 8 5 2 3 6 9 10 12 14 15 16 17 17 17 19 19 21 21 15
16 16 19 20 21 21 20 19 16 12 11 12 10 7 6 5 6 7 9 12 13 15 16 16 16 17 17 19 22 21 21 18
16 19 20 22 23 23 22 19 13 12 13 12 10 9 8 8 8 9 11 13 14 16 17 17 17 17 16 18 21 19 16 15
16 19 21 23 24 23 22 17 13 12 12 12 12 11 10 10 10 11 12 13 15 17 17 17 16 16 16 18 16 14 12 12
17 16 20 23 24 24 22 17 12 14 15 14 13 11 11 12 12 13 14 14 16 17 17 18 17 17 14 11 11 12 12 12
16 16 18 23 24 23 22 17 12 16 14 13 12 12 12 13 14 14 15 14 16 17 17 17 17 14 10 7 10 10 10 11
16 17 21 23 24 23 23 15 15 15 14 13 13 12 12 14 14 15 16 15 16 16 16 15 14 9 6 10 6 7 12 14
16 17 21 22 23 23 22 16 13 14 12 12 12 12 13 14 15 16 16 16 16 16 14 11 11 3 6 6 5 8 12 14
14 17 19 21 20 19 19 14 13 12 9 9 11 11 14 14 15 16 16 16 16 14 13 11 10 5 8 8 7 8 12 12
Wind_Direction
162 176 180 186 171 164 168 168 169 161 169 174 178 183 176 161 156 150 144 128 89 58 319 335 332 319 317 322 314 313 309 307
168 169 168 172 166 168 160 163 165 165 178 180 171 160 162 158 148 139 129 115 63 20 323 315 319 319 318 312 308 310 311 310
175 171 175 177 170 168 169 172 168 178 171 161 171 164 157 147 143 130 113 76 23 347 337 322 321 315 313 312 310 306 306 309
177 178 173 168 166 161 166 163 165 168 143 140 141 138 153 162 154 137 61 17 353 338 323 317 314 312 311 311 304 304 306 305
177 179 157 159 158 160 153 155 148 149 165 160 168 165 141 78 72 70 339 328 321 318 314 312 311 308 305 301 302 301 298 301
162 154 154 146 143 144 144 145 142 144 132 133 125 104 111 106 61 341 323 321 320 316 314 315 304 301 298 295 291 292 293 298
155 147 141 144 142 145 147 146 137 130 119 108 106 104 83 46 3 335 340 326 322 320 318 314 305 296 292 288 280 275 291 299
155 154 155 152 152 153 149 145 137 131 124 120 112 101 73 49 347 347 335 329 323 321 322 316 309 300 290 286 272 278 289 287
168 167 161 161 161 158 155 156 149 142 134 122 109 111 112 111 348 345 336 323 322 322 317 312 307 297 289 262 266 279 282 271
176 175 171 169 170 168 167 166 155 148 138 144 138 147 121 182 348 330 324 324 321 317 312 308 302 298 288 272 274 278 284 288
183 178 178 177 179 173 171 168 158 160 157 160 162 163 179 216 288 316 327 322 314 311 311 309 305 296 276 283 283 285 291 295
187 183 184 184 179 175 173 169 169 172 170 173 180 187 206 244 285 309 314 310 309 310 309 307 304 299 294 291 287 290 289 283
188 190 188 187 182 181 179 176 179 173 181 186 199 211 230 261 286 296 303 303 307 307 306 301 297 298 303 297 299 294 292 286
193 191 195 194 190 188 184 186 185 183 203 203 215 225 246 268 282 290 297 301 305 305 301 300 302 298 299 293 299 299 298 296
206 197 201 202 198 196 191 189 192 209 206 216 230 238 258 269 280 287 293 297 302 305 303 301 300 302 300 302 299 298 294 295
213 207 206 206 202 200 199 196 208 208 209 225 239 249 260 270 280 286 291 293 299 305 304 301 297 294 295 290 301 295 294 300
214 213 212 210 205 206 203 215 214 209 215 230 244 258 268 275 284 287 288 289 299 303 300 300 303 305 247 292 292 304 304 303
219 218 218 213 210 207 204 222 212 209 222 238 254 269 277 283 287 289 288 290 298 300 300 312 305 297 266 275 283 313 307 308
225 222 218 216 214 197 215 214 202 209 230 254 264 279 287 291 290 288 291 291 293 295 289 286 287 262 245 261 287 313 309 308
Height
802 806 808 810 814 820 827 831 834 837 838 842 845 847 851 853 855 857 859 860 860 860 860 859 859 858 857 856 855 853 850 847
804 807 811 813 816 821 828 831 834 837 840 841 844 847 850 852 855 857 858 859 858 859 859 859 858 858 857 855 853 851 848 846
802 807 811 814 817 821 827 830 834 836 837 839 842 844 848 851 854 856 857 858 858 859 859 859 858 857 855 853 851 850 848 846
801 806 810 813 818 822 826 829 832 833 835 840 843 846 850 851 853 854 857 858 858 858 858 858 857 855 853 851 850 850 847 846
798 804 808 813 817 821 824 828 831 835 837 839 841 841 842 849 853 855 856 857 857 857 856 855 855 853 851 849 848 848 848 844
795 802 807 813 818 822 826 830 834 837 839 841 842 846 850 852 854 855 854 855 854 854 853 852 850 850 848 847 846 846 846 844
796 802 809 815 820 825 828 831 834 838 840 842 845 849 851 852 854 854 852 853 852 851 851 849 848 846 845 843 843 844 843 842
795 802 808 815 820 825 828 832 836 839 841 844 847 850 852 853 855 853 852 852 851 850 848 846 845 842 841 840 841 842 840 839
795 801 807 814 820 824 827 832 835 839 842 844 847 849 851 851 853 852 851 851 849 847 846 844 842 839 838 838 839 838 837 835
794 800 806 812 818 822 826 830 834 838 842 844 846 847 848 851 851 851 850 849 847 845 843 841 838 837 836 835 835 833 832 830
792 797 805 811 816 821 825 829 834 838 840 842 842 844 846 847 848 848 847 846 845 843 840 838 835 833 832 831 830 828 828 826
789 797 804 810 815 820 824 828 832 835 836 838 840 841 843 845 845 844 844 843 842 839 837 835 833 831 828 827 826 825 823 822
784 795 803 807 813 818 821 826 829 831 833 835 836 838 840 841 841 841 840 840 838 836 834 832 828 826 825 824 824 822 820 819
779 790 799 804 810 814 818 822 825 827 830 831 833 835 836 837 837 837 837 836 835 833 830 828 826 824 823 821 820 819 819 819
774 784 794 801 805 811 815 819 821 824 825 826 828 830 832 833 833 833 832 832 831 829 827 825 823 822 821 819 819 819 819 817
772 781 790 796 801 807 811 815 817 819 821 823 825 827 828 829 829 829 828 827 826 824 822 821 819 818 820 819 817 816 816 816
772 780 785 791 796 803 808 811 811 815 817 820 823 824 824 824 825 824 823 822 821 819 817 814 813 814 816 817 816 816 815 814
769 775 780 786 793 800 804 807 809 813 816 818 820 822 822 820 820 819 818 817 817 817 815 814 813 811 813 815 814 814 813 812
767 772 778 783 789 796 802 803 806 810 813 817 819 819 819 818 817 816 815 814 813 811 810 809 810 809 810 813 813 811 811 810